Location: Neuvy Saint Sepulchre
(46.5953°N, 1.8122°E)
Time: 09:31:15
(UTC+02:00)

ISS - Pass Details

Date: 18 July 2021
Orbit: 419 x 421 km, 51.6° (Epoch: 04 August)

Event Time Altitude Azimuth Distance (km) Brightness Sun altitude
Rises 02:09:38 0° 295° (WNW) 2,372 0.4 -22.3°
Reaches altitude 10° 02:11:48 10° 301° (WNW) 1,506 -0.6 -22.3°
Maximum altitude 02:15:05 49° 17° (NNE) 554 -2.8 -22.3°
Enters shadow 02:15:53 39° 61° (ENE) 650 -2.6 -22.3°
